BEL1GH LIMC-EBBR

Flight info

Callsign BEL1GH
Flight time 1h 7m
Altitude 34000
Route AOSTA DCT ORSUD DCT MOLUS DCT GILIR DCT PENDU DCT IXILU DCT GIVOR/N0425F320 DCT SORAL DCT IBERA N853 DIK Y37 BATTY
Aircraft A320/M-SDE3FGHIRWY/LB1

Departure

Time 2026-05-04 11:56
Airport Milan Malpensa International Airport (LIMC)

Arrival

Time 2026-05-04 13:03
Airport Brussels Airport (EBBR)
Time Latitude Longitude Altitude Speed Heading
2026-05-04 11:25 45.62505 8.71740 733 ft 0 kts 259°
2026-05-04 11:42 45.62505 8.71743 733 ft 3 kts 259°
2026-05-04 11:42 45.62509 8.71778 731 ft 4 kts 270°
2026-05-04 11:43 45.62505 8.71807 731 ft 4 kts 325°
2026-05-04 11:43 45.62499 8.71812 732 ft 0 kts 349°
2026-05-04 11:46 45.62507 8.71810 731 ft 4 kts 349°
2026-05-04 11:46 45.62552 8.71803 734 ft 9 kts
2026-05-04 11:46 45.62625 8.71838 735 ft 13 kts
2026-05-04 11:47 45.62719 8.71811 736 ft 13 kts 349°
2026-05-04 11:47 45.62825 8.71782 738 ft 19 kts 348°
2026-05-04 11:47 45.62942 8.71754 741 ft 13 kts
2026-05-04 11:47 45.62976 8.71833 741 ft 9 kts 77°
2026-05-04 11:48 45.62990 8.71928 742 ft 10 kts 78°
2026-05-04 11:48 45.63004 8.72030 742 ft 14 kts 78°
2026-05-04 11:48 45.63022 8.72167 743 ft 13 kts 81°
2026-05-04 11:48 45.63040 8.72283 743 ft 11 kts 68°
2026-05-04 11:49 45.63080 8.72366 744 ft 12 kts 43°
2026-05-04 11:49 45.63176 8.72462 744 ft 19 kts 34°
2026-05-04 11:49 45.63277 8.72561 745 ft 16 kts 35°
2026-05-04 11:49 45.63364 8.72649 743 ft 14 kts 35°
2026-05-04 11:50 45.63447 8.72700 747 ft 12 kts
2026-05-04 11:50 45.63538 8.72680 746 ft 19 kts 348°
2026-05-04 11:50 45.63669 8.72643 749 ft 18 kts 349°
2026-05-04 11:50 45.63778 8.72614 752 ft 14 kts 349°
2026-05-04 11:51 45.63865 8.72591 751 ft 11 kts 349°
2026-05-04 11:51 45.63938 8.72571 755 ft 10 kts 348°
2026-05-04 11:51 45.64016 8.72549 755 ft 11 kts 348°
2026-05-04 11:51 45.64079 8.72531 759 ft 8 kts 348°
2026-05-04 11:52 45.64152 8.72504 760 ft 19 kts 344°
2026-05-04 11:52 45.64285 8.72465 764 ft 18 kts 348°
2026-05-04 11:52 45.64396 8.72433 766 ft 15 kts 348°
2026-05-04 11:52 45.64468 8.72481 767 ft 11 kts 68°
2026-05-04 11:53 45.64472 8.72578 767 ft 8 kts 132°
2026-05-04 11:53 45.64443 8.72623 766 ft 12 kts 127°
2026-05-04 11:53 45.64385 8.72739 764 ft 0 kts 124°
2026-05-04 11:55 45.63553 8.73185 744 ft 108 kts 169°
2026-05-04 11:55 45.62613 8.73415 745 ft 162 kts 174°
2026-05-04 11:56 45.61873 8.73616 1117 ft 162 kts 171°
2026-05-04 11:56 45.60786 8.73871 1827 ft 154 kts 177°
2026-05-04 11:56 45.59744 8.73611 2343 ft 154 kts 206°
2026-05-04 11:56 45.58775 8.72785 2635 ft 173 kts 217°
2026-05-04 11:57 45.57840 8.71531 2909 ft 196 kts 229°
2026-05-04 11:57 45.57067 8.69816 3351 ft 212 kts 245°
2026-05-04 11:57 45.56632 8.67789 4057 ft 217 kts 260°
2026-05-04 11:57 45.56623 8.65615 4801 ft 224 kts 277°
2026-05-04 11:58 45.57065 8.63480 5506 ft 230 kts 288°
2026-05-04 11:58 45.57621 8.61319 6240 ft 234 kts 288°
2026-05-04 11:58 45.58183 8.59111 6971 ft 237 kts 288°
2026-05-04 11:58 45.58744 8.56900 7691 ft 239 kts 287°
2026-05-04 11:59 45.59311 8.54656 8391 ft 241 kts 287°
2026-05-04 11:59 45.59884 8.52385 9108 ft 245 kts 286°
2026-05-04 11:59 45.60464 8.50081 9837 ft 248 kts 285°
2026-05-04 11:59 45.61051 8.47748 10519 ft 253 kts 285°
2026-05-04 12:00 45.61659 8.45317 11000 ft 262 kts 285°
2026-05-04 12:00 45.62267 8.42905 11143 ft 255 kts 285°
2026-05-04 12:00 45.62850 8.40546 11797 ft 253 kts 281°
2026-05-04 12:00 45.63274 8.38037 12209 ft 270 kts 279°
2026-05-04 12:01 45.63711 8.35308 12437 ft 293 kts 279°
2026-05-04 12:01 45.64183 8.32347 12626 ft 317 kts 279°
2026-05-04 12:02 45.67428 8.12343 16028 ft 354 kts 279°
2026-05-04 12:03 45.67976 8.08938 16584 ft 356 kts 279°
2026-05-04 12:03 45.68532 8.05474 17163 ft 358 kts 280°
2026-05-04 12:03 45.69088 8.01977 17755 ft 362 kts 279°
2026-05-04 12:03 45.69647 7.98452 18349 ft 365 kts 279°
2026-05-04 12:04 45.70212 7.94889 18901 ft 368 kts 279°
2026-05-04 12:04 45.70786 7.91299 19405 ft 372 kts 279°
2026-05-04 12:04 45.71367 7.87677 19878 ft 375 kts 279°
2026-05-04 12:04 45.71950 7.84028 20223 ft 377 kts 279°
2026-05-04 12:05 45.72532 7.80348 20661 ft 380 kts 279°
2026-05-04 12:05 45.73106 7.76686 21191 ft 383 kts 278°
2026-05-04 12:05 45.73691 7.72951 21716 ft 386 kts 278°
2026-05-04 12:05 45.74283 7.69174 22227 ft 389 kts 278°
2026-05-04 12:06 45.74877 7.65378 22744 ft 392 kts 278°
2026-05-04 12:06 45.75475 7.61544 23252 ft 395 kts 278°
2026-05-04 12:06 45.76076 7.57688 23729 ft 398 kts 278°
2026-05-04 12:06 45.76683 7.53804 24129 ft 401 kts 278°
2026-05-04 12:07 45.77294 7.49886 24537 ft 404 kts 278°
2026-05-04 12:07 45.77904 7.45946 24932 ft 406 kts 278°
2026-05-04 12:07 45.78532 7.41974 25332 ft 410 kts 281°
2026-05-04 12:07 45.79508 7.38150 25707 ft 418 kts 291°
2026-05-04 12:08 45.81016 7.34546 26076 ft 426 kts 303°
2026-05-04 12:08 45.83022 7.31358 26399 ft 435 kts 314°
2026-05-04 12:08 45.85438 7.28697 26736 ft 440 kts 321°
2026-05-04 12:08 45.87951 7.26157 27073 ft 443 kts 321°
2026-05-04 12:09 45.90476 7.23595 27424 ft 445 kts 321°
2026-05-04 12:09 45.93005 7.21017 27757 ft 447 kts 321°
2026-05-04 12:09 45.95552 7.18412 28077 ft 449 kts 321°
2026-05-04 12:09 45.98103 7.15801 28362 ft 451 kts 321°
2026-05-04 12:10 46.00632 7.13211 28685 ft 453 kts 321°
2026-05-04 12:10 46.03215 7.10562 28918 ft 457 kts 321°
2026-05-04 12:10 46.05813 7.07896 29184 ft 460 kts 321°
2026-05-04 12:10 46.08427 7.05213 29465 ft 463 kts 321°
2026-05-04 12:11 46.11054 7.02516 29747 ft 465 kts 321°
2026-05-04 12:11 46.13695 6.99802 30024 ft 467 kts 321°
2026-05-04 12:11 46.16344 6.97073 30271 ft 468 kts 320°
2026-05-04 12:11 46.18997 6.94333 30403 ft 470 kts 320°
2026-05-04 12:12 46.21654 6.91587 30562 ft 471 kts 320°
2026-05-04 12:12 46.24318 6.88829 30792 ft 471 kts 320°
2026-05-04 12:12 46.26986 6.86058 31066 ft 471 kts 320°
2026-05-04 12:12 46.29651 6.83291 31363 ft 470 kts 320°
2026-05-04 12:13 46.32306 6.80543 31759 ft 468 kts 320°
2026-05-04 12:14 46.51032 6.63269 32037 ft 456 kts 330°
2026-05-04 12:15 46.56737 6.59259 32040 ft 456 kts 330°
2026-05-04 12:15 46.62441 6.55235 32040 ft 455 kts 330°
2026-05-04 12:16 46.68157 6.51191 32031 ft 455 kts 330°
2026-05-04 12:16 46.73811 6.47183 32030 ft 455 kts 330°
2026-05-04 12:17 46.79511 6.43131 32016 ft 456 kts 330°
2026-05-04 12:17 46.85219 6.39059 32008 ft 456 kts 329°
2026-05-04 12:18 46.90931 6.34974 32004 ft 457 kts 329°
2026-05-04 12:18 46.96658 6.30871 32001 ft 457 kts 329°
2026-05-04 12:19 47.02340 6.26788 32014 ft 458 kts 329°
2026-05-04 12:19 47.08060 6.22669 32010 ft 458 kts 329°
2026-05-04 12:20 47.12806 6.19255 32007 ft 458 kts 329°
2026-05-04 12:20 47.18523 6.15139 31996 ft 458 kts 329°
2026-05-04 12:21 47.24245 6.11008 32015 ft 458 kts 329°
2026-05-04 12:21 47.29927 6.06888 32004 ft 458 kts 329°
2026-05-04 12:22 47.36003 6.03839 32005 ft 467 kts 347°
2026-05-04 12:22 47.42537 6.03419 32007 ft 472 kts 359°
2026-05-04 12:23 47.49115 6.03587 32018 ft 472 kts 359°
2026-05-04 12:23 47.55688 6.03737 32017 ft 472 kts 358°
2026-05-04 12:24 47.62220 6.03876 32016 ft 472 kts 358°
2026-05-04 12:24 47.68790 6.04025 32021 ft 472 kts 358°
2026-05-04 12:25 47.75359 6.04681 32020 ft 475 kts
2026-05-04 12:25 47.81783 6.07029 32014 ft 476 kts 13°
2026-05-04 12:26 47.88207 6.09457 32025 ft 476 kts 13°
2026-05-04 12:26 47.94634 6.11886 32019 ft 476 kts 13°
2026-05-04 12:27 48.01060 6.14308 32015 ft 476 kts 13°
2026-05-04 12:27 48.07438 6.16720 32016 ft 476 kts 13°
2026-05-04 12:28 48.13861 6.19165 32018 ft 475 kts 13°
2026-05-04 12:28 48.20276 6.21608 32017 ft 475 kts 13°
2026-05-04 12:29 48.26691 6.24056 32016 ft 475 kts 13°
2026-05-04 12:29 48.33096 6.26503 32023 ft 474 kts 12°
2026-05-04 12:30 48.39456 6.28939 32021 ft 474 kts 13°
2026-05-04 12:30 48.45855 6.31409 32019 ft 474 kts 13°
2026-05-04 12:31 48.52249 6.33873 32025 ft 473 kts 12°
2026-05-04 12:31 48.58635 6.36334 32025 ft 473 kts 13°
2026-05-04 12:32 48.68214 6.39398 32019 ft 468 kts
2026-05-04 12:33 48.74721 6.40044 32014 ft 468 kts
2026-05-04 12:33 48.81231 6.40697 32009 ft 468 kts
2026-05-04 12:34 48.87738 6.41356 32007 ft 468 kts
2026-05-04 12:34 48.94201 6.42008 32018 ft 468 kts
2026-05-04 12:35 49.00712 6.42667 32020 ft 468 kts
2026-05-04 12:35 49.07214 6.43333 32017 ft 468 kts
2026-05-04 12:36 49.13656 6.42780 32017 ft 460 kts 344°
2026-05-04 12:36 49.19829 6.40286 32017 ft 458 kts 341°
2026-05-04 12:37 49.25984 6.37766 32007 ft 458 kts 341°
2026-05-04 12:37 49.32097 6.35256 32009 ft 457 kts 341°
2026-05-04 12:38 49.38258 6.32724 32015 ft 458 kts 341°
2026-05-04 12:38 49.44410 6.30185 32028 ft 457 kts 341°
2026-05-04 12:39 49.50546 6.27629 32024 ft 456 kts 340°
2026-05-04 12:39 49.56631 6.25108 32026 ft 456 kts 341°
2026-05-04 12:40 49.62781 6.22603 32005 ft 456 kts 341°
2026-05-04 12:40 49.68925 6.20084 31873 ft 456 kts 341°
2026-05-04 12:40 49.71983 6.18826 31612 ft 453 kts 341°
2026-05-04 12:41 49.75020 6.17574 31353 ft 451 kts 341°
2026-05-04 12:41 49.78051 6.16324 31101 ft 450 kts 341°
2026-05-04 12:41 49.81067 6.15077 30856 ft 448 kts 341°
2026-05-04 12:41 49.84077 6.13830 30604 ft 447 kts 341°
2026-05-04 12:42 49.87082 6.12592 30354 ft 446 kts 342°
2026-05-04 12:42 49.90086 6.11447 30024 ft 443 kts 343°
2026-05-04 12:42 49.93085 6.10388 29440 ft 441 kts 344°
2026-05-04 12:42 49.96071 6.09380 28930 ft 437 kts 345°
2026-05-04 12:43 49.99033 6.08391 28414 ft 434 kts 345°
2026-05-04 12:43 50.01937 6.07414 27911 ft 432 kts 345°
2026-05-04 12:43 50.04866 6.06411 27420 ft 431 kts 344°
2026-05-04 12:43 50.07782 6.05389 26914 ft 428 kts 344°
2026-05-04 12:44 50.10686 6.04354 26428 ft 426 kts 344°
2026-05-04 12:44 50.13562 6.03326 25945 ft 423 kts 344°
2026-05-04 12:44 50.16415 6.02309 25469 ft 419 kts 344°
2026-05-04 12:44 50.19247 6.01297 24991 ft 417 kts 344°
2026-05-04 12:45 50.22067 6.00286 24503 ft 414 kts 344°
2026-05-04 12:45 50.24874 5.99279 24033 ft 413 kts 344°
2026-05-04 12:45 50.27668 5.98279 23553 ft 411 kts 344°
2026-05-04 12:45 50.30452 5.97281 22980 ft 410 kts 344°
2026-05-04 12:46 50.32326 5.96609 22656 ft 408 kts 344°
2026-05-04 12:46 50.35054 5.95637 22173 ft 405 kts 344°
2026-05-04 12:46 50.37800 5.94658 21665 ft 403 kts 345°
2026-05-04 12:46 50.40528 5.93682 21169 ft 401 kts 345°
2026-05-04 12:47 50.43249 5.92708 20660 ft 400 kts 345°
2026-05-04 12:47 50.45953 5.91736 20152 ft 398 kts 345°
2026-05-04 12:47 50.48651 5.90767 19647 ft 397 kts 345°
2026-05-04 12:47 50.51345 5.89797 19148 ft 396 kts 345°
2026-05-04 12:48 50.54022 5.88828 18684 ft 393 kts 345°
2026-05-04 12:48 50.56679 5.87863 18182 ft 392 kts 346°
2026-05-04 12:48 50.59312 5.86907 17788 ft 385 kts 346°
2026-05-04 12:48 50.61890 5.85760 17281 ft 382 kts 336°
2026-05-04 12:49 50.64144 5.83784 16838 ft 371 kts 321°
2026-05-04 12:49 50.65963 5.81017 16233 ft 357 kts 305°
2026-05-04 12:49 50.67221 5.77763 15809 ft 339 kts 294°
2026-05-04 12:49 50.68263 5.74493 15401 ft 330 kts 295°
2026-05-04 12:50 50.69293 5.71289 14988 ft 324 kts 295°
2026-05-04 12:50 50.70304 5.68155 14598 ft 318 kts 295°
2026-05-04 12:50 50.71300 5.65068 14210 ft 313 kts 295°
2026-05-04 12:50 50.72280 5.62023 13823 ft 309 kts 295°
2026-05-04 12:51 50.73244 5.59015 13409 ft 304 kts 296°
2026-05-04 12:51 50.74184 5.56067 13031 ft 298 kts 296°
2026-05-04 12:51 50.75113 5.53150 12651 ft 296 kts 295°
2026-05-04 12:51 50.76034 5.50262 12279 ft 293 kts 295°
2026-05-04 12:52 50.76951 5.47382 11891 ft 293 kts 295°
2026-05-04 12:52 50.77863 5.44508 11509 ft 292 kts 295°
2026-05-04 12:52 50.78778 5.41632 11126 ft 292 kts 295°
2026-05-04 12:52 50.79689 5.38771 10740 ft 291 kts 295°
2026-05-04 12:53 50.80595 5.35912 10355 ft 290 kts 295°
2026-05-04 12:53 50.81492 5.33068 10149 ft 287 kts 295°
2026-05-04 12:53 50.82387 5.30231 10042 ft 288 kts 295°
2026-05-04 12:53 50.83282 5.27395 9735 ft 290 kts 295°
2026-05-04 12:54 50.84187 5.24529 9305 ft 289 kts 295°
2026-05-04 12:54 50.85071 5.21725 8907 ft 287 kts 295°
2026-05-04 12:54 50.85957 5.18901 8460 ft 285 kts 295°
2026-05-04 12:54 50.86834 5.16101 7777 ft 283 kts 295°
2026-05-04 12:55 50.87691 5.13326 7180 ft 278 kts 292°
2026-05-04 12:55 50.88387 5.10498 6689 ft 275 kts 290°
2026-05-04 12:55 50.89080 5.07667 6203 ft 276 kts 290°
2026-05-04 12:55 50.89778 5.04829 5731 ft 276 kts 290°
2026-05-04 12:56 50.90472 5.02002 5285 ft 274 kts 290°
2026-05-04 12:56 50.91158 4.99193 4827 ft 274 kts 290°
2026-05-04 12:56 50.91840 4.96397 4421 ft 271 kts 290°
2026-05-04 12:56 50.92508 4.93646 4154 ft 257 kts 290°
2026-05-04 12:57 50.93111 4.91162 4082 ft 236 kts 290°
2026-05-04 12:57 50.93683 4.88797 3988 ft 224 kts 290°
2026-05-04 12:57 50.94228 4.86547 3880 ft 213 kts 290°
2026-05-04 12:57 50.94747 4.84411 3806 ft 204 kts 290°
2026-05-04 12:58 50.95252 4.82329 3716 ft 201 kts 290°
2026-05-04 12:58 50.95717 4.80252 3663 ft 196 kts 281°
2026-05-04 12:58 50.95761 4.78182 3541 ft 183 kts 259°
2026-05-04 12:58 50.95380 4.76292 3315 ft 177 kts 250°
2026-05-04 12:59 50.94966 4.74476 3086 ft 173 kts 250°
2026-05-04 12:59 50.94563 4.72705 2862 ft 169 kts 250°
2026-05-04 12:59 50.94167 4.70970 2638 ft 165 kts 250°
2026-05-04 12:59 50.93780 4.69276 2412 ft 161 kts 251°
2026-05-04 13:00 50.93417 4.67686 2228 ft 148 kts 251°
2026-05-04 13:00 50.93071 4.66177 2028 ft 143 kts 251°
2026-05-04 13:00 50.92738 4.64723 1838 ft 141 kts 251°
2026-05-04 13:00 50.92404 4.63262 1655 ft 141 kts 251°
2026-05-04 13:01 50.92069 4.61804 1462 ft 141 kts 250°
2026-05-04 13:01 50.91734 4.60342 1278 ft 141 kts 250°
2026-05-04 13:01 50.91400 4.58888 1082 ft 140 kts 251°
2026-05-04 13:01 50.91066 4.57434 887 ft 140 kts 251°
2026-05-04 13:02 50.90734 4.55988 694 ft 140 kts 250°
2026-05-04 13:02 50.90400 4.54535 506 ft 140 kts 250°
2026-05-04 13:02 50.90064 4.53083 323 ft 140 kts 250°
2026-05-04 13:02 50.89739 4.51640 173 ft 130 kts 250°
2026-05-04 13:03 50.89465 4.50487 175 ft 97 kts 249°
2026-05-04 13:03 50.89258 4.49602 176 ft 76 kts 251°
2026-05-04 13:03 50.89167 4.49177 176 ft 25 kts 250°
2026-05-04 13:03 50.89181 4.49037 176 ft 11 kts 349°
2026-05-04 13:04 50.89258 4.49062 171 ft 10 kts 17°
2026-05-04 13:04 50.89266 4.49065 170 ft 0 kts 15°
2026-05-04 13:05 50.89281 4.49071 169 ft 7 kts 14°
2026-05-04 13:05 50.89341 4.49096 166 ft 10 kts 14°
2026-05-04 13:06 50.89411 4.49125 164 ft 12 kts 14°
2026-05-04 13:06 50.89495 4.49159 160 ft 14 kts 14°
2026-05-04 13:06 50.89598 4.49214 155 ft 18 kts 32°
2026-05-04 13:06 50.89729 4.49296 147 ft 23 kts 14°
2026-05-04 13:07 50.89907 4.49368 136 ft 29 kts 14°
2026-05-04 13:07 50.90115 4.49452 130 ft 30 kts 14°
2026-05-04 13:07 50.90260 4.49511 126 ft 19 kts 15°
2026-05-04 13:07 50.90356 4.49531 122 ft 10 kts 336°
2026-05-04 13:08 50.90359 4.49439 122 ft 8 kts 246°
2026-05-04 13:08 50.90339 4.49368 124 ft 5 kts 246°
2026-05-04 13:08 50.90328 4.49329 125 ft 2 kts 246°
2026-05-04 13:08 50.90303 4.49240 126 ft 20 kts 246°
2026-05-04 13:09 50.90270 4.49122 126 ft 1 kts 246°
2026-05-04 13:09 50.90265 4.49106 124 ft 6 kts 244°
2026-05-04 13:09 50.90223 4.48964 126 ft 15 kts 245°
2026-05-04 13:09 50.90180 4.48815 127 ft 7 kts 246°
2026-05-04 13:10 50.90161 4.48778 126 ft 3 kts 207°
2026-05-04 13:10 50.90130 4.48800 126 ft 13 kts 130°
2026-05-04 13:10 50.90110 4.48823 126 ft 1 kts 156°
2026-05-04 13:10 50.90097 4.48832 131 ft 4 kts 157°
2026-05-04 13:11 50.90094 4.48834 131 ft 0 kts 157°